Time,TemperatureF,DewpointF,PressureIn,WindDirection,WindDirectionDegrees,WindSpeedMPH,WindSpeedGustMPH,Humidity,HourlyPrecipIn,Conditions,Clouds,dailyrainin,SoftwareType,DateUTC
2013-04-10 00:02:00,43.0,28.0,-100.00,NE,45,5.0,8.0,55,-99.99,,,-99.99,,2013-04-10 07:02:00,
2013-04-10 00:12:00,43.0,28.0,-100.00,NE,37,3.0,7.0,55,-99.99,,,-99.99,,2013-04-10 07:12:00,
2013-04-10 00:22:00,42.0,27.0,-100.00,NE,42,4.0,7.0,55,-99.99,,,-99.99,,2013-04-10 07:22:00,
2013-04-10 00:32:00,42.0,27.0,-100.00,NE,56,3.0,5.0,55,-99.99,,,-99.99,,2013-04-10 07:32:00,
2013-04-10 00:42:00,42.0,28.0,-100.00,NE,44,5.0,6.0,57,-99.99,,,-99.99,,2013-04-10 07:42:00,
2013-04-10 00:52:00,42.0,27.0,-100.00,NE,56,5.0,7.0,56,-99.99,,,-99.99,,2013-04-10 07:52:00,
2013-04-10 01:02:00,42.0,27.0,-100.00,NE,39,6.0,10.0,56,-99.99,,,-99.99,,2013-04-10 08:02:00,
2013-04-10 01:11:00,43.0,28.0,-100.00,NE,36,3.0,8.0,54,-99.99,,,-99.99,,2013-04-10 08:11:00,
2013-04-10 01:22:00,43.0,28.0,-100.00,NE,40,4.0,6.0,54,-99.99,,,-99.99,,2013-04-10 08:22:00,
2013-04-10 01:32:00,43.0,28.0,-100.00,NE,44,4.0,7.0,54,-99.99,,,-99.99,,2013-04-10 08:32:00,
2013-04-10 01:42:00,42.0,27.0,-100.00,ENE,57,5.0,7.0,55,-99.99,,,-99.99,,2013-04-10 08:42:00,
2013-04-10 02:02:00,41.0,27.0,-100.00,NE,45,5.0,9.0,58,-99.99,,,-99.99,,2013-04-10 09:02:00,
2013-04-10 02:12:00,41.0,27.0,-100.00,NNE,33,5.0,7.0,58,-99.99,,,-99.99,,2013-04-10 09:12:00,
2013-04-10 02:22:00,41.0,27.0,-100.00,NE,44,4.0,7.0,57,-99.99,,,-99.99,,2013-04-10 09:22:00,
2013-04-10 02:32:00,41.0,27.0,-100.00,NE,44,5.0,8.0,57,-99.99,,,-99.99,,2013-04-10 09:32:00,
2013-04-10 02:42:00,41.0,27.0,-100.00,NE,47,5.0,7.0,57,-99.99,,,-99.99,,2013-04-10 09:42:00,
2013-04-10 02:52:00,42.0,27.0,-100.00,NE,42,4.0,7.0,56,-99.99,,,-99.99,,2013-04-10 09:52:00,
2013-04-10 03:02:00,42.0,27.0,-100.00,NE,36,5.0,8.0,56,-99.99,,,-99.99,,2013-04-10 10:02:00,
2013-04-10 03:12:00,42.0,27.0,-100.00,NE,53,4.0,7.0,54,-99.99,,,-99.99,,2013-04-10 10:12:00,
2013-04-10 03:23:00,41.0,27.0,-100.00,NE,55,5.0,9.0,56,-99.99,,,-99.99,,2013-04-10 10:23:00,
2013-04-10 03:33:00,42.0,27.0,-100.00,NE,46,5.0,7.0,56,-99.99,,,-99.99,,2013-04-10 10:33:00,
2013-04-10 03:42:00,41.0,27.0,-100.00,NE,53,5.0,7.0,58,-99.99,,,-99.99,,2013-04-10 10:42:00,
2013-04-10 03:52:00,41.0,27.0,-100.00,ENE,62,5.0,7.0,58,-99.99,,,-99.99,,2013-04-10 10:52:00,
2013-04-10 04:02:00,41.0,28.0,-100.00,NE,50,5.0,7.0,59,-99.99,,,-99.99,,2013-04-10 11:02:00,
2013-04-10 04:12:00,41.0,27.0,-100.00,NE,45,5.0,8.0,58,-99.99,,,-99.99,,2013-04-10 11:12:00,
2013-04-10 04:22:00,41.0,27.0,-100.00,NE,45,4.0,7.0,58,-99.99,,,-99.99,,2013-04-10 11:22:00,
2013-04-10 04:32:00,42.0,28.0,-100.00,NNE,25,5.0,8.0,58,-99.99,,,-99.99,,2013-04-10 11:32:00,
2013-04-10 04:42:00,42.0,27.0,-100.00,ENE,67,3.0,6.0,56,-99.99,,,-99.99,,2013-04-10 11:42:00,
2013-04-10 04:52:00,41.0,28.0,-100.00,NE,52,4.0,7.0,59,-99.99,,,-99.99,,2013-04-10 11:52:00,
2013-04-10 05:02:00,40.0,27.0,-100.00,NE,48,5.0,8.0,60,-99.99,,,-99.99,,2013-04-10 12:02:00,
2013-04-10 05:12:00,40.0,28.0,-100.00,NE,40,5.0,8.0,62,-99.99,,,-99.99,,2013-04-10 12:12:00,
2013-04-10 05:22:00,41.0,28.0,-100.00,NE,37,5.0,8.0,60,-99.99,,,-99.99,,2013-04-10 12:22:00,
2013-04-10 05:32:00,42.0,28.0,-100.00,NE,52,4.0,7.0,58,-99.99,,,-99.99,,2013-04-10 12:32:00,
2013-04-10 05:42:00,41.0,28.0,-100.00,ENE,58,4.0,8.0,59,-99.99,,,-99.99,,2013-04-10 12:42:00,
2013-04-10 05:52:00,41.0,28.0,-100.00,NE,47,3.0,6.0,60,-99.99,,,-99.99,,2013-04-10 12:52:00,
2013-04-10 06:02:00,41.0,28.0,-100.00,NE,54,5.0,7.0,60,-99.99,,,-99.99,,2013-04-10 13:02:00,
2013-04-10 06:12:00,41.0,28.0,-100.00,NE,41,5.0,8.0,60,-99.99,,,-99.99,,2013-04-10 13:12:00,
2013-04-10 06:23:00,41.0,28.0,-100.00,NE,48,6.0,9.0,59,-99.99,,,-99.99,,2013-04-10 13:23:00,
2013-04-10 06:32:00,42.0,28.0,-100.00,NE,56,4.0,8.0,58,-99.99,,,-99.99,,2013-04-10 13:32:00,
2013-04-10 06:42:00,41.0,28.0,-100.00,ENE,62,3.0,7.0,59,-99.99,,,-99.99,,2013-04-10 13:42:00,
2013-04-10 06:52:00,42.0,27.0,-100.00,ENE,59,3.0,6.0,56,-99.99,,,-99.99,,2013-04-10 13:52:00,
2013-04-10 07:02:00,42.0,27.0,-100.00,ENE,59,3.0,6.0,56,-99.99,,,-99.99,,2013-04-10 14:02:00,
2013-04-10 07:12:00,43.0,27.0,-100.00,ENE,73,3.0,8.0,53,-99.99,,,-99.99,,2013-04-10 14:12:00,
2013-04-10 07:22:00,43.0,28.0,-100.00,East,81,4.0,8.0,54,-99.99,,,-99.99,,2013-04-10 14:22:00,
2013-04-10 07:32:00,45.0,27.0,-100.00,NE,50,5.0,10.0,49,-99.99,,,-99.99,,2013-04-10 14:32:00,
2013-04-10 07:40:00,54.0,32.0,-100.00,SSW,197,3.0,8.0,43,-99.99,,,-99.99,,2013-04-10 14:40:00,
2013-04-10 07:42:00,46.0,26.0,-100.00,ESE,112,4.0,9.0,46,-99.99,,,-99.99,,2013-04-10 14:42:00,
2013-04-10 07:52:00,50.0,31.0,-100.00,South,187,2.0,8.0,47,-99.99,,,-99.99,,2013-04-10 14:52:00,
2013-04-10 08:02:00,53.0,32.0,-100.00,SE,125,2.0,7.0,44,-99.99,,,-99.99,,2013-04-10 15:02:00,
2013-04-10 08:12:00,54.0,32.0,-100.00,SSW,197,3.0,8.0,43,-99.99,,,-99.99,,2013-04-10 15:12:00,
2013-04-10 08:22:00,54.0,32.0,-100.00,SSW,197,3.0,8.0,43,-99.99,,,-99.99,,2013-04-10 15:22:00,
2013-04-10 08:32:00,54.0,32.0,-100.00,SSW,197,3.0,8.0,43,-99.99,,,-99.99,,2013-04-10 15:32:00,
2013-04-10 08:52:00,59.0,45.0,-100.00,SSW,198,5.0,9.0,60,-99.99,,,-99.99,,2013-04-10 15:52:00,
2013-04-10 09:02:00,59.0,45.0,-100.00,SSW,198,6.0,9.0,60,-99.99,,,-99.99,,2013-04-10 16:02:00,
2013-04-10 09:12:00,61.0,47.0,-100.00,South,175,5.0,9.0,59,-99.99,,,-99.99,,2013-04-10 16:12:00,
2013-04-10 09:23:00,62.0,46.0,-100.00,SSW,202,6.0,9.0,55,-99.99,,,-99.99,,2013-04-10 16:23:00,
2013-04-10 09:32:00,63.0,46.0,-100.00,SSW,202,6.0,11.0,53,-99.99,,,-99.99,,2013-04-10 16:32:00,
2013-04-10 09:42:00,64.0,44.0,-100.00,SSW,208,7.0,16.0,49,-99.99,,,-99.99,,2013-04-10 16:42:00,
2013-04-10 09:52:00,63.0,46.0,-100.00,SSW,198,8.0,13.0,53,-99.99,,,-99.99,,2013-04-10 16:52:00,
2013-04-10 10:02:00,63.0,46.0,-100.00,SSW,213,8.0,16.0,53,-99.99,,,-99.99,,2013-04-10 17:02:00,
2013-04-10 10:12:00,62.0,46.0,-100.00,SW,215,8.0,14.0,55,-99.99,,,-99.99,,2013-04-10 17:12:00,
2013-04-10 10:22:00,62.0,46.0,-100.00,SW,221,9.0,14.0,56,-99.99,,,-99.99,,2013-04-10 17:22:00,
2013-04-10 10:33:00,62.0,47.0,-100.00,SSW,213,7.0,12.0,57,-99.99,,,-99.99,,2013-04-10 17:33:00,
2013-04-10 10:42:00,63.0,47.0,-100.00,SSW,201,7.0,10.0,56,-99.99,,,-99.99,,2013-04-10 17:42:00,
2013-04-10 10:52:00,63.0,47.0,-100.00,SSW,210,7.0,12.0,56,-99.99,,,-99.99,,2013-04-10 17:52:00,
2013-04-10 11:02:00,63.0,47.0,-100.00,SSW,205,7.0,10.0,55,-99.99,,,-99.99,,2013-04-10 18:02:00,
2013-04-10 11:12:00,63.0,47.0,-100.00,SW,217,8.0,13.0,55,-99.99,,,-99.99,,2013-04-10 18:12:00,
2013-04-10 11:22:00,64.0,47.0,-100.00,SW,218,7.0,14.0,53,-99.99,,,-99.99,,2013-04-10 18:22:00,
2013-04-10 11:32:00,64.0,47.0,-100.00,SW,223,7.0,11.0,53,-99.99,,,-99.99,,2013-04-10 18:32:00,
2013-04-10 11:42:00,64.0,46.0,-100.00,SSW,208,6.0,13.0,52,-99.99,,,-99.99,,2013-04-10 18:42:00,
2013-04-10 11:52:00,65.0,47.0,-100.00,SW,217,6.0,10.0,52,-99.99,,,-99.99,,2013-04-10 18:52:00,
2013-04-10 12:02:00,65.0,47.0,-100.00,SW,218,7.0,12.0,52,-99.99,,,-99.99,,2013-04-10 19:02:00,
2013-04-10 12:12:00,65.0,46.0,-100.00,SW,228,8.0,12.0,51,-99.99,,,-99.99,,2013-04-10 19:12:00,
2013-04-10 12:22:00,65.0,46.0,-100.00,SW,223,7.0,12.0,51,-99.99,,,-99.99,,2013-04-10 19:22:00,
2013-04-10 12:32:00,66.0,48.0,-100.00,SSW,206,6.0,10.0,52,-99.99,,,-99.99,,2013-04-10 19:32:00,
2013-04-10 12:42:00,67.0,48.0,-100.00,SW,218,5.0,10.0,50,-99.99,,,-99.99,,2013-04-10 19:42:00,
2013-04-10 12:52:00,68.0,48.0,-100.00,South,184,6.0,11.0,49,-99.99,,,-99.99,,2013-04-10 19:52:00,
2013-04-10 13:02:00,68.0,48.0,-100.00,SSW,197,6.0,10.0,48,-99.99,,,-99.99,,2013-04-10 20:02:00,
2013-04-10 13:12:00,68.0,48.0,-100.00,SW,221,8.0,12.0,48,-99.99,,,-99.99,,2013-04-10 20:12:00,
2013-04-10 13:22:00,69.0,47.0,-100.00,SW,222,8.0,11.0,46,-99.99,,,-99.99,,2013-04-10 20:22:00,
2013-04-10 13:32:00,69.0,47.0,-100.00,SSW,212,7.0,11.0,45,-99.99,,,-99.99,,2013-04-10 20:32:00,
2013-04-10 13:42:00,70.0,46.0,-100.00,SSW,200,8.0,13.0,43,-99.99,,,-99.99,,2013-04-10 20:42:00,
2013-04-10 13:52:00,70.0,45.0,-100.00,SSW,203,8.0,12.0,41,-99.99,,,-99.99,,2013-04-10 20:52:00,
2013-04-10 14:02:00,69.0,45.0,-100.00,SSW,199,9.0,14.0,42,-99.99,,,-99.99,,2013-04-10 21:02:00,
2013-04-10 14:12:00,69.0,45.0,-100.00,SSW,199,9.0,14.0,42,-99.99,,,-99.99,,2013-04-10 21:12:00,
2013-04-10 14:22:00,69.0,44.0,-100.00,SSW,193,9.0,15.0,40,-99.99,,,-99.99,,2013-04-10 21:22:00,
2013-04-10 14:32:00,69.0,43.0,-100.00,SSW,202,9.0,16.0,39,-99.99,,,-99.99,,2013-04-10 21:32:00,
2013-04-10 14:42:00,69.0,42.0,-100.00,SW,214,9.0,15.0,38,-99.99,,,-99.99,,2013-04-10 21:42:00,
2013-04-10 14:52:00,69.0,44.0,-100.00,SSW,211,9.0,14.0,40,-99.99,,,-99.99,,2013-04-10 21:52:00,
2013-04-10 15:02:00,69.0,44.0,-100.00,SSW,206,8.0,13.0,41,-99.99,,,-99.99,,2013-04-10 22:02:00,
2013-04-10 15:12:00,69.0,44.0,-100.00,SSW,206,8.0,13.0,41,-99.99,,,-99.99,,2013-04-10 22:12:00,
2013-04-10 15:22:00,69.0,43.0,-100.00,SSW,210,9.0,13.0,39,-99.99,,,-99.99,,2013-04-10 22:22:00,
2013-04-10 15:33:00,69.0,44.0,-100.00,SW,223,8.0,13.0,40,-99.99,,,-99.99,,2013-04-10 22:33:00,
2013-04-10 15:42:00,69.0,44.0,-100.00,SSW,199,8.0,11.0,40,-99.99,,,-99.99,,2013-04-10 22:42:00,
2013-04-10 15:52:00,69.0,44.0,-100.00,SSW,199,8.0,11.0,40,-99.99,,,-99.99,,2013-04-10 22:52:00,
2013-04-10 16:02:00,69.0,44.0,-100.00,SSW,199,8.0,11.0,40,-99.99,,,-99.99,,2013-04-10 23:02:00,
2013-04-10 16:12:00,69.0,44.0,-100.00,SSW,203,7.0,12.0,40,-99.99,,,-99.99,,2013-04-10 23:12:00,
2013-04-10 16:22:00,69.0,44.0,-100.00,SW,216,5.0,11.0,41,-99.99,,,-99.99,,2013-04-10 23:22:00,
2013-04-10 16:32:00,71.0,40.0,-100.00,SW,232,4.0,9.0,33,-99.99,,,-99.99,,2013-04-10 23:32:00,
2013-04-10 16:42:00,72.0,39.0,-100.00,WSW,248,4.0,8.0,30,-99.99,,,-99.99,,2013-04-10 23:42:00,
2013-04-10 16:52:00,72.0,39.0,-100.00,WSW,248,4.0,8.0,30,-99.99,,,-99.99,,2013-04-10 23:52:00,
2013-04-10 17:02:00,72.0,37.0,-100.00,SSW,211,6.0,11.0,28,-99.99,,,-99.99,,2013-04-11 00:02:00,
2013-04-10 17:12:00,73.0,36.0,-100.00,SSW,192,7.0,12.0,26,-99.99,,,-99.99,,2013-04-11 00:12:00,
2013-04-10 17:22:00,74.0,34.0,-100.00,SW,218,5.0,11.0,23,-99.99,,,-99.99,,2013-04-11 00:22:00,
2013-04-10 17:32:00,74.0,32.0,-100.00,SW,216,6.0,10.0,21,-99.99,,,-99.99,,2013-04-11 00:32:00,
2013-04-10 17:42:00,75.0,26.0,-100.00,West,276,6.0,16.0,16,-99.99,,,-99.99,,2013-04-11 00:42:00,
2013-04-10 17:52:00,75.0,24.0,-100.00,West,276,7.0,14.0,15,-99.99,,,-99.99,,2013-04-11 00:52:00,
2013-04-10 18:02:00,74.0,22.0,-100.00,WSW,237,10.0,17.0,14,-99.99,,,-99.99,,2013-04-11 01:02:00,
2013-04-10 18:12:00,74.0,23.0,-100.00,West,270,5.0,10.0,15,-99.99,,,-99.99,,2013-04-11 01:12:00,
2013-04-10 18:22:00,74.0,23.0,-100.00,WSW,243,6.0,11.0,15,-99.99,,,-99.99,,2013-04-11 01:22:00,
2013-04-10 18:32:00,74.0,22.0,-100.00,WSW,243,7.0,14.0,14,-99.99,,,-99.99,,2013-04-11 01:32:00,
2013-04-10 18:42:00,73.0,21.0,-100.00,West,266,6.0,16.0,14,-99.99,,,-99.99,,2013-04-11 01:42:00,
2013-04-10 18:52:00,72.0,22.0,-100.00,West,267,6.0,15.0,15,-99.99,,,-99.99,,2013-04-11 01:52:00,
2013-04-10 19:02:00,72.0,25.0,-100.00,SW,223,5.0,9.0,17,-99.99,,,-99.99,,2013-04-11 02:02:00,
2013-04-10 19:12:00,72.0,25.0,-100.00,SW,223,5.0,9.0,17,-99.99,,,-99.99,,2013-04-11 02:12:00,
2013-04-10 19:22:00,71.0,25.0,-100.00,SSW,209,4.0,7.0,18,-99.99,,,-99.99,,2013-04-11 02:22:00,
2013-04-10 19:32:00,70.0,28.0,-100.00,SW,216,5.0,10.0,21,-99.99,,,-99.99,,2013-04-11 02:32:00,
2013-04-10 19:42:00,70.0,28.0,-100.00,SW,216,5.0,10.0,21,-99.99,,,-99.99,,2013-04-11 02:42:00,
2013-04-10 19:52:00,67.0,34.0,-100.00,SW,221,3.0,5.0,29,-99.99,,,-99.99,,2013-04-11 02:52:00,
2013-04-10 20:02:00,66.0,34.0,-100.00,WSW,237,3.0,5.0,31,-99.99,,,-99.99,,2013-04-11 03:02:00,
2013-04-10 20:12:00,64.0,34.0,-100.00,SE,130,1.0,3.0,32,-99.99,,,-99.99,,2013-04-11 03:12:00,
2013-04-10 20:22:00,63.0,34.0,-100.00,NE,45,1.0,3.0,34,-99.99,,,-99.99,,2013-04-11 03:22:00,
2013-04-10 20:33:00,63.0,35.0,-100.00,NNE,19,2.0,3.0,35,-99.99,,,-99.99,,2013-04-11 03:33:00,
2013-04-10 20:43:00,61.0,33.0,-100.00,NE,41,5.0,8.0,35,-99.99,,,-99.99,,2013-04-11 03:43:00,
2013-04-10 20:53:00,60.0,32.0,-100.00,NE,50,4.0,7.0,35,-99.99,,,-99.99,,2013-04-11 03:53:00,
2013-04-10 21:03:00,59.0,32.0,-100.00,NE,45,5.0,6.0,36,-99.99,,,-99.99,,2013-04-11 04:03:00,
2013-04-10 21:12:00,58.0,31.0,-100.00,NE,36,5.0,8.0,36,-99.99,,,-99.99,,2013-04-11 04:12:00,
2013-04-10 21:22:00,57.0,30.0,-100.00,ENE,57,5.0,9.0,36,-99.99,,,-99.99,,2013-04-11 04:22:00,
2013-04-10 21:33:00,56.0,30.0,-100.00,ENE,57,6.0,9.0,37,-99.99,,,-99.99,,2013-04-11 04:33:00,
2013-04-10 21:42:00,55.0,30.0,-100.00,NE,46,4.0,6.0,38,-99.99,,,-99.99,,2013-04-11 04:42:00,
2013-04-10 21:52:00,54.0,30.0,-100.00,NE,46,3.0,4.0,39,-99.99,,,-99.99,,2013-04-11 04:52:00,
2013-04-10 22:02:00,53.0,29.0,-100.00,NE,51,4.0,6.0,40,-99.99,,,-99.99,,2013-04-11 05:02:00,
2013-04-10 22:12:00,52.0,30.0,-100.00,NE,47,4.0,6.0,42,-99.99,,,-99.99,,2013-04-11 05:12:00,
2013-04-10 22:22:00,51.0,30.0,-100.00,NE,53,3.0,6.0,45,-99.99,,,-99.99,,2013-04-11 05:22:00,
2013-04-10 22:32:00,51.0,30.0,-100.00,NE,53,3.0,6.0,45,-99.99,,,-99.99,,2013-04-11 05:32:00,
2013-04-10 22:42:00,51.0,31.0,-100.00,ENE,65,2.0,3.0,46,-99.99,,,-99.99,,2013-04-11 05:42:00,
2013-04-10 22:52:00,50.0,31.0,-100.00,NE,50,3.0,5.0,48,-99.99,,,-99.99,,2013-04-11 05:52:00,
2013-04-10 23:02:00,49.0,31.0,-100.00,NE,52,4.0,5.0,50,-99.99,,,-99.99,,2013-04-11 06:02:00,
2013-04-10 23:12:00,48.0,30.0,-100.00,NE,50,4.0,6.0,50,-99.99,,,-99.99,,2013-04-11 06:12:00,
2013-04-10 23:22:00,48.0,31.0,-100.00,NE,49,5.0,7.0,51,-99.99,,,-99.99,,2013-04-11 06:22:00,
2013-04-10 23:32:00,47.0,30.0,-100.00,NE,56,6.0,8.0,51,-99.99,,,-99.99,,2013-04-11 06:32:00,
2013-04-10 23:42:00,47.0,30.0,-100.00,NE,48,5.0,9.0,51,-99.99,,,-99.99,,2013-04-11 06:42:00,
2013-04-10 23:52:00,47.0,30.0,-100.00,NE,54,3.0,6.0,51,-99.99,,,-99.99,,2013-04-11 06:52:00,